Location: Miss�
(46.9484°N, 0.1922°W)
Time: 22:54:42
(UTC+00:00)

SJ 16-02 - Pass Details

Date: 02 March 2021
Orbit: 605 x 617 km, 75.0° (Epoch: 20 April)

Event Time Altitude Azimuth Distance (km) Brightness Sun altitude
Rises 19:19:02 0° 352° (N) 2,882 5.0 -16.3°
Reaches altitude 10° 19:22:01 10° 13° (NNE) 1,976 3.9 -16.8°
Enters shadow 19:24:14 16° 43° (NE) 1,602 3.2 -17.2°
